TimeCDT,TemperatureF,Dew PointF,Humidity,Sea Level PressureIn,VisibilityMPH,Wind Direction,Wind SpeedMPH,Gust SpeedMPH,PrecipitationIn,Events,Conditions,WindDirDegrees,DateUTC
12:53 AM,55.0,53.1,93,29.94,7.0,NNE,5.8,-,0.07,Rain,Light Rain,20,2013-03-11 05:53:00
1:34 AM,55.4,53.6,94,29.97,5.0,NW,5.8,-,0.03,Rain,Rain,320,2013-03-11 06:34:00
1:53 AM,55.0,52.0,89,29.96,7.0,NNW,13.8,-,0.04,Rain,Light Rain,330,2013-03-11 06:53:00
1:59 AM,55.4,51.8,88,29.97,7.0,NW,10.4,-,0.01,Rain-Thunderstorm,Rain,320,2013-03-11 06:59:00
2:19 AM,51.8,46.4,82,29.96,2.0,NNW,20.7,28.8,0.17,Rain-Thunderstorm,Heavy Rain,330,2013-03-11 07:19:00
2:33 AM,51.8,46.4,82,29.99,3.0,NW,16.1,24.2,0.25,Rain-Thunderstorm,Heavy Thunderstorms and Rain,310,2013-03-11 07:33:00
2:53 AM,50.0,45.0,83,29.97,8.0,NNW,20.7,26.5,0.28,Rain,Light Rain,330,2013-03-11 07:53:00
3:07 AM,48.2,44.6,87,29.97,6.0,NW,17.3,21.9,0.03,Rain-Thunderstorm,Heavy Rain,320,2013-03-11 08:07:00
3:22 AM,48.2,44.6,87,29.96,7.0,NNW,13.8,-,0.08,Rain,Light Rain,340,2013-03-11 08:22:00
3:53 AM,48.0,44.1,86,29.98,10.0,NNW,13.8,-,0.11,Rain,Light Rain,330,2013-03-11 08:53:00
4:53 AM,46.0,42.1,86,30.01,5.0,NNW,9.2,-,0.17,Rain,Rain,340,2013-03-11 09:53:00
5:53 AM,46.9,39.9,77,30.01,10.0,NNW,11.5,-,0.05,Rain,Light Rain,330,2013-03-11 10:53:00
6:53 AM,46.0,39.0,76,30.03,10.0,NNW,8.1,-,0.01,Rain,Light Rain,330,2013-03-11 11:53:00
7:53 AM,46.0,39.0,76,30.01,10.0,NNW,9.2,-,0.01,,Overcast,340,2013-03-11 12:53:00
8:53 AM,46.0,37.9,73,30.05,10.0,NW,9.2,-,0.00,,Overcast,320,2013-03-11 13:53:00
9:53 AM,46.9,36.0,66,30.04,10.0,NW,13.8,-,N/A,,Overcast,320,2013-03-11 14:53:00
10:53 AM,50.0,35.1,57,30.06,10.0,NW,19.6,26.5,N/A,,Clear,320,2013-03-11 15:53:00
11:53 AM,53.1,36.0,52,30.04,10.0,NNW,17.3,21.9,N/A,,Clear,330,2013-03-11 16:53:00
12:53 PM,53.1,35.1,50,30.01,10.0,WNW,17.3,-,N/A,,Clear,300,2013-03-11 17:53:00
1:53 PM,-9999,-9999,N/A,29.99,10.0,NW,15.0,24.2,N/A,,Clear,310,2013-03-11 18:53:00
2:53 PM,57.9,35.1,42,29.97,10.0,North,12.7,20.7,N/A,,Clear,350,2013-03-11 19:53:00
3:53 PM,57.9,33.1,39,29.96,10.0,NNW,13.8,21.9,N/A,,Clear,340,2013-03-11 20:53:00
4:53 PM,57.9,32.0,37,29.95,10.0,NNW,15.0,-,N/A,,Clear,330,2013-03-11 21:53:00
5:53 PM,57.9,32.0,37,29.95,10.0,NNW,15.0,23.0,N/A,,Clear,330,2013-03-11 22:53:00
6:53 PM,55.9,32.0,40,29.96,10.0,NW,11.5,-,N/A,,Clear,320,2013-03-11 23:53:00
7:53 PM,53.1,33.1,47,29.99,10.0,NNW,5.8,-,N/A,,Clear,340,2013-03-12 00:53:00
8:53 PM,51.1,35.1,54,30.02,10.0,North,5.8,-,N/A,,Clear,350,2013-03-12 01:53:00
9:53 PM,50.0,34.0,54,30.06,10.0,NNW,5.8,-,N/A,,Clear,340,2013-03-12 02:53:00
10:53 PM,48.9,34.0,56,30.07,10.0,NNW,4.6,-,N/A,,Clear,340,2013-03-12 03:53:00
11:53 PM,46.9,34.0,61,30.07,10.0,Calm,Calm,-,N/A,,Clear,0,2013-03-12 04:53:00